FW8901 Weather Reports


Display with metric or nautical units.
time (UTC)temp
F
wind
direction
speed
MPH
gust
MPH
rain 1hr
in
rain 24hr
in
rain mn
in
humidity
%
barometer
mb
20260831151601 81 0.0 0.0 0.00 0.00 0.00 76 1020.4
20260831151050 81 0.0 0.0 0.00 0.00 0.00 76 1020.3
20260831150545 81 0.0 0.0 0.00 0.00 0.00 77 1020.4
20260831150108 80 0.0 0.0 0.00 0.00 0.00 79 1020.4
20260831145548 80 0.0 0.0 0.00 0.00 0.00 78 1020.5
20260831145043 80 0.0 0.0 0.00 0.00 0.00 78 1020.4
20260831144607 80 0.0 0.0 0.00 0.00 0.00 79 1020.4
20260831144048 79 0.0 0.0 0.00 0.00 0.00 81 1020.3
20260831143547 78 0.0 0.0 0.00 0.00 0.00 81 1020.3
20260831143107 79 0.0 0.0 0.00 0.00 0.00 81 1020.4
20260831142547 78 0.0 0.0 0.00 0.00 0.00 83 1020.3
20260831142050 77 0.0 0.0 0.00 0.00 0.00 83 1020.3
20260831141606 77 0.0 0.0 0.00 0.00 0.00 83 1020.2
20260831141047 78 0.0 0.0 0.00 0.00 0.00 82 1020.2
20260831140547 78 0.0 0.0 0.00 0.00 0.00 82 1020.1
20260831140106 78 0.0 0.0 0.00 0.00 0.00 83 1020.0
20260831135547 78 0.0 0.0 0.00 0.00 0.00 82 1020.0
20260831135052 78 0.0 0.0 0.00 0.00 0.00 83 1020.1
20260831134606 77 0.0 0.0 0.00 0.00 0.00 84 1020.0
20260831134048 76 0.0 0.0 0.00 0.00 0.00 85 1020.1
20260831133546 76 0.0 0.0 0.00 0.00 0.00 86 1020.2
20260831133106 75 0.0 0.0 0.00 0.00 0.00 87 1020.1
20260831132547 74 0.0 0.0 0.00 0.00 0.00 91 1020.1
20260831132047 73 0.0 0.0 0.00 0.00 0.00 94 1020.2
20260831131604 72 0.0 0.0 0.00 0.00 0.00 94 1020.2
20260831131047 72 0.0 0.0 0.00 0.00 0.00 94 1020.4
20260831130546 72 0.0 0.0 0.00 0.00 0.00 94 1020.5
20260831130109 71 0.0 0.0 0.00 0.00 0.00 94 1020.4
20260831125547 71 0.0 0.0 0.00 0.00 0.00 94 1020.4
20260831125048 71 0.0 0.0 0.00 0.00 0.00 94 1020.4
20260831124611 71 0.0 0.0 0.00 0.00 0.00 94 1020.3
20260831124049 70 0.0 0.0 0.00 0.00 0.00 94 1020.2
20260831123547 70 0.0 0.0 0.00 0.00 0.00 94 1020.2
20260831123105 70 0.0 0.0 0.00 0.00 0.00 94 1020.2
20260831122547 70 0.0 0.0 0.00 0.00 0.00 94 1020.1
20260831122047 70 0.0 0.0 0.00 0.00 0.00 94 1020.1
20260831121601 70 0.0 0.0 0.00 0.00 0.00 94 1020.1
20260831121047 69 0.0 0.0 0.00 0.00 0.00 94 1020.2
20260831120547 69 0.0 0.0 0.00 0.00 0.00 93 1020.0
20260831120106 69 0.0 0.0 0.00 0.00 0.00 93 1020.0
20260831115544 69 0.0 0.0 0.00 0.00 0.00 93 1020.0
20260831115044 69 0.0 0.0 0.00 0.00 0.00 93 1020.1
20260831114606 69 0.0 0.0 0.00 0.00 0.00 93 1020.0
20260831114043 69 0.0 0.0 0.00 0.00 0.00 93 1019.9
20260831113545 69 0.0 0.0 0.00 0.00 0.00 93 1020.0
20260831113107 69 0.0 0.0 0.00 0.00 0.00 93 1020.0
20260831112547 69 0.0 0.0 0.00 0.00 0.00 93 1020.0
20260831112044 69 0.0 0.0 0.00 0.00 0.00 93 1019.8
20260831111607 69 0.0 0.0 0.00 0.00 0.00 93 1019.7
20260831111045 69 0.0 0.0 0.00 0.00 0.00 93 1019.6
20260831110549 69 0.0 0.0 0.00 0.00 0.00 93 1019.5
20260831110101 69 0.0 0.0 0.00 0.00 0.00 93 1019.5
20260831105547 69 0.0 0.0 0.00 0.00 0.00 93 1019.4
20260831105048 69 0.0 0.0 0.00 0.00 0.00 93 1019.3
20260831104557 69 0.0 0.0 0.00 0.00 0.00 93 1019.1
20260831104048 69 0.0 0.0 0.00 0.00 0.00 93 1019.2
20260831103546 69 0.0 0.0 0.00 0.00 0.00 93 1019.2
20260831103057 70 0.0 0.0 0.00 0.00 0.00 93 1019.2
20260831102547 70 0.0 0.0 0.00 0.00 0.00 93 1019.2
20260831102047 70 0.0 0.0 0.00 0.00 0.00 93 1019.2
20260831101610 70 0.0 0.0 0.00 0.00 0.00 93 1019.1
20260831101047 70 0.0 0.0 0.00 0.00 0.00 93 1019.1
20260831100547 70 0.0 0.0 0.00 0.00 0.00 93 1019.2
20260831100121 69 0.0 0.0 0.00 0.00 0.00 92 1019.3
20260831095550 69 0.0 0.0 0.00 0.00 0.00 92 1019.2
20260831095047 69 0.0 0.0 0.00 0.00 0.00 92 1019.3
20260831094556 69 0.0 0.0 0.00 0.00 0.00 92 1019.3
20260831094051 69 0.0 0.0 0.00 0.00 0.00 92 1019.1
20260831093547 69 0.0 0.0 0.00 0.00 0.00 92 1019.0
20260831093128 70 0.0 0.0 0.00 0.00 0.00 92 1019.0
20260831092546 70 0.0 0.0 0.00 0.00 0.00 92 1018.9
20260831092049 70 0.0 0.0 0.00 0.00 0.00 92 1018.9
20260831091609 70 0.0 0.0 0.00 0.00 0.00 92 1018.9
20260831091047 70 0.0 0.0 0.00 0.00 0.00 92 1018.8
20260831090547 70 0.0 0.0 0.00 0.00 0.00 92 1018.8
20260831090131 70 0.0 0.0 0.00 0.00 0.00 92 1018.8
20260831085549 70 0.0 0.0 0.00 0.00 0.00 92 1018.8
20260831085051 70 0.0 0.0 0.00 0.00 0.00 92 1018.8
20260831084604 70 0.0 0.0 0.00 0.00 0.00 92 1018.8
20260831084054 70 0.0 0.0 0.00 0.00 0.00 92 1018.8
20260831083547 70 0.0 0.0 0.00 0.00 0.00 92 1018.7
20260831083111 70 0.0 0.0 0.00 0.00 0.00 92 1018.7
20260831082547 70 0.0 0.0 0.00 0.00 0.00 91 1018.7
20260831082048 70 0.0 0.0 0.00 0.00 0.00 91 1018.7
20260831081606 70 0.0 0.0 0.00 0.00 0.00 91 1018.7
20260831081055 70 0.0 0.0 0.00 0.00 0.00 91 1018.8
20260831080547 70 0.0 0.0 0.00 0.00 0.00 91 1018.7
20260831080130 70 0.0 0.0 0.00 0.00 0.00 91 1018.7
20260831075548 70 0.0 0.0 0.00 0.00 0.00 91 1018.7
20260831075048 70 0.0 0.0 0.00 0.00 0.00 91 1018.7
20260831074558 70 0.0 0.0 0.00 0.00 0.00 91 1018.7
20260831074047 70 0.0 0.0 0.00 0.00 0.00 91 1018.7
20260831073546 70 0.0 0.0 0.00 0.00 0.00 91 1018.5
20260831073112 70 0.0 0.0 0.00 0.00 0.00 91 1018.5
20260831072548 70 0.0 0.0 0.00 0.00 0.00 91 1018.5
20260831072047 70 0.0 0.0 0.00 0.00 0.00 90 1018.5
20260831071558 70 0.0 0.0 0.00 0.00 0.00 90 1018.5
20260831071047 71 0.0 0.0 0.00 0.00 0.00 90 1018.5
20260831070549 71 0.0 0.0 0.00 0.00 0.00 90 1018.6
20260831070108 71 0.0 0.0 0.00 0.00 0.00 90 1018.6
20260831065548 71 0.0 0.0 0.00 0.00 0.00 90 1018.6
20260831065047 71 0.0 0.0 0.00 0.00 0.00 91 1018.6
20260831064605 71 0.0 0.0 0.00 0.00 0.00 91 1018.6
20260831064047 71 0.0 0.0 0.00 0.00 0.00 90 1018.6
20260831063546 71 0.0 0.0 0.00 0.00 0.00 90 1018.6
20260831063114 71 0.0 0.0 0.00 0.00 0.00 90 1018.7
20260831062548 71 0.0 0.0 0.00 0.00 0.00 90 1018.7
20260831062049 71 0.0 0.0 0.00 0.00 0.00 90 1018.7
20260831061558 71 0.0 0.0 0.00 0.00 0.00 90 1018.8
20260831061049 71 0.0 0.0 0.00 0.00 0.00 90 1018.8
20260831060548 71 0.0 0.0 0.00 0.00 0.00 90 1018.9
20260831060112 72 0.0 0.0 0.00 0.00 0.00 90 1018.9
20260831055546 72 0.0 0.0 0.00 0.00 0.00 90 1019.0
20260831055047 72 0.0 0.0 0.00 0.00 0.00 89 1019.1
20260831054615 72 0.0 0.0 0.00 0.00 0.00 89 1019.2
20260831054047 72 0.0 0.0 0.00 0.00 0.00 89 1019.2
20260831053547 72 0.0 0.0 0.00 0.00 0.00 89 1019.2
20260831053130 72 0.0 0.0 0.00 0.00 0.00 89 1019.3
20260831052548 72 0.0 0.0 0.00 0.00 0.00 89 1019.2
20260831052047 72 0.0 0.0 0.00 0.00 0.00 89 1019.3
20260831051604 72 0.0 0.0 0.00 0.00 0.00 89 1019.3
20260831051047 72 0.0 0.0 0.00 0.00 0.00 89 1019.3
20260831050547 72 0.0 0.0 0.00 0.00 0.00 89 1019.3
20260831050111 73 0.0 0.0 0.00 0.00 0.00 88 1019.3
20260831045548 73 0.0 0.0 0.00 0.00 0.00 88 1019.4
20260831045047 73 0.0 0.0 0.00 0.00 0.00 88 1019.4
20260831044644 73 0.0 0.0 0.00 0.00 0.00 88 1019.5
20260831044047 73 0.0 0.0 0.00 0.00 0.00 88 1019.5
20260831043547 73 0.0 0.0 0.00 0.00 0.00 88 1019.6
20260831043100 73 0.0 0.0 0.00 0.00 0.00 88 1019.5
20260831042547 73 0.0 0.0 0.00 0.00 0.00 87 1019.5
20260831042047 73 0.0 0.0 0.00 0.00 0.00 87 1019.5
20260831041614 73 0.0 0.0 0.00 0.00 0.00 87 1019.5
20260831041047 73 0.0 0.0 0.00 0.00 0.00 87 1019.6
20260831040548 73 0.0 0.0 0.00 0.00 0.00 87 1019.5
20260831040108 74 0.0 0.0 0.00 0.00 0.00 87 1019.5
20260831035547 74 0.0 0.0 0.00 0.00 0.00 87 1019.5
20260831035047 74 0.0 0.0 0.00 0.00 0.00 87 1019.5
20260831034601 74 0.0 0.0 0.00 0.00 0.00 86 1019.5
20260831034047 74 0.0 0.0 0.00 0.00 0.00 86 1019.5
20260831033547 74 0.0 0.0 0.00 0.00 0.00 86 1019.6
20260831033111 74 0.0 0.0 0.00 0.00 0.00 86 1019.6
20260831032547 74 0.0 0.0 0.00 0.00 0.00 86 1019.5
20260831032047 74 0.0 0.0 0.00 0.00 0.00 86 1019.5
20260831031602 74 0.0 0.0 0.00 0.00 0.00 86 1019.6
20260831031047 74 0.0 0.0 0.00 0.00 0.00 86 1019.6
20260831030549 74 0.0 0.0 0.00 0.00 0.00 86 1019.7
20260831030107 74 0.0 0.0 0.00 0.00 0.00 85 1019.6
20260831025550 74 0.0 0.0 0.00 0.00 0.00 86 1019.7
20260831025047 74 0.0 0.0 0.00 0.00 0.00 85 1019.8
20260831024606 74 0.0 0.0 0.00 0.00 0.00 85 1020.0
20260831024047 74 0.0 0.0 0.00 0.00 0.00 85 1020.0
20260831023546 74 0.0 0.0 0.00 0.00 0.00 85 1020.0
20260831023107 75 0.0 0.0 0.00 0.00 0.00 85 1020.0
20260831022548 75 0.0 0.0 0.00 0.00 0.00 84 1020.2
20260831022051 75 0.0 0.0 0.00 0.00 0.00 84 1020.2
20260831021601 75 0.0 0.0 0.00 0.00 0.00 83 1020.2
20260831021044 75 0.0 0.0 0.00 0.00 0.00 83 1020.1
20260831020544 75 0.0 0.0 0.00 0.00 0.00 84 1019.9
20260831020100 75 0.0 0.0 0.00 0.00 0.00 83 1019.9
20260831015551 75 0.0 0.0 0.00 0.00 0.00 83 1019.8
20260831015048 76 0.0 0.0 0.00 0.00 0.00 83 1019.9
20260831014604 76 0.0 0.0 0.00 0.00 0.00 83 1019.8
20260831014047 76 0.0 0.0 0.00 0.00 0.00 82 1019.8
20260831013547 76 0.0 0.0 0.00 0.00 0.00 82 1019.7
20260831013110 76 0.0 0.0 0.00 0.00 0.00 82 1019.8
20260831012545 76 0.0 0.0 0.00 0.00 0.00 82 1019.8
20260831012044 76 0.0 0.0 0.00 0.00 0.00 81 1019.8
20260831011602 76 0.0 0.0 0.00 0.00 0.00 81 1020.0
20260831011047 77 0.0 0.0 0.00 0.00 0.00 80 1019.9
20260831010548 77 0.0 0.0 0.00 0.00 0.00 80 1019.9
20260831010120 77 0.0 0.0 0.00 0.00 0.00 79 1019.9
20260831005600 77 0.0 0.0 0.00 0.00 0.00 79 1019.7
20260831005049 77 0.0 0.0 0.00 0.00 0.00 79 1019.6
20260831004614 77 0.0 0.0 0.00 0.00 0.00 78 1019.5
20260831004049 78 0.0 0.0 0.00 0.00 0.00 78 1019.6
20260831003548 78 0.0 0.0 0.00 0.00 0.00 78 1019.6
20260831003104 78 0.0 0.0 0.00 0.00 0.00 77 1019.6
20260831002550 78 0.0 0.0 0.00 0.00 0.00 77 1019.6
20260831002048 78 0.0 0.0 0.00 0.00 0.00 77 1019.5
20260831001601 78 0.0 0.0 0.00 0.00 0.00 76 1019.6
20260831001049 79 0.0 0.0 0.00 0.00 0.00 76 1019.5
20260831000547 79 0.0 0.0 0.00 0.00 0.00 76 1019.5
20260831000109 79 0.0 0.0 0.00 0.00 0.00 76 1019.4
20260830235549 79 0.0 0.0 0.00 0.00 0.00 75 1019.3
20260830235048 79 0.0 0.0 0.00 0.00 0.00 74 1019.4
20260830234635 79 0.0 0.0 0.00 0.00 0.00 74 1019.4
20260830234047 79 0.0 0.0 0.00 0.00 0.00 74 1019.5
20260830233545 80 0.0 0.0 0.00 0.00 0.00 73 1019.6
20260830233100 80 0.0 0.0 0.00 0.00 0.00 72 1019.7
20260830232545 80 0.0 0.0 0.00 0.00 0.00 72 1019.6
20260830232046 80 0.0 0.0 0.00 0.00 0.00 71 1019.4
20260830231607 81 0.0 0.0 0.00 0.00 0.00 71 1019.5
20260830231046 81 0.0 0.0 0.00 0.00 0.00 70 1019.4
20260830230548 81 0.0 0.0 0.00 0.00 0.00 70 1019.3
20260830230106 82 0.0 0.0 0.00 0.00 0.00 71 1019.4
20260830225545 82 0.0 0.0 0.00 0.00 0.00 71 1019.3
20260830225045 82 0.0 0.0 0.00 0.00 0.00 71 1019.3
20260830224604 82 0.0 0.0 0.00 0.00 0.00 72 1019.4
20260830224047 83 0.0 0.0 0.00 0.00 0.00 72 1019.3
20260830223548 83 0.0 0.0 0.00 0.00 0.00 71 1019.4
20260830223100 83 0.0 0.0 0.00 0.00 0.00 73 1019.1
20260830222546 83 0.0 0.0 0.00 0.00 0.00 72 1019.1
20260830222056 84 0.0 0.0 0.00 0.00 0.00 72 1018.9
20260830221608 84 0.0 0.0 0.00 0.00 0.00 71 1019.0
20260830221048 84 0.0 0.0 0.00 0.00 0.00 71 1019.0
20260830220545 84 0.0 0.0 0.00 0.00 0.00 71 1018.9
20260830220106 84 0.0 0.0 0.00 0.00 0.00 70 1018.8
20260830215544 85 0.0 0.0 0.00 0.00 0.00 70 1018.9
20260830215058 85 0.0 0.0 0.00 0.00 0.00 70 1018.9
20260830214602 85 0.0 0.0 0.00 0.00 0.00 69 1019.1
20260830214046 85 0.0 0.0 0.00 0.00 0.00 68 1019.1
20260830213545 85 0.0 0.0 0.00 0.00 0.00 68 1019.1
20260830213113 85 0.0 0.0 0.00 0.00 0.00 68 1019.2
20260830212547 85 0.0 0.0 0.00 0.00 0.00 68 1019.1
20260830212100 85 0.0 0.0 0.00 0.00 0.00 67 1019.1
20260830211606 85 0.0 0.0 0.00 0.00 0.00 67 1019.0
20260830211046 85 0.0 0.0 0.00 0.00 0.00 69 1019.1
20260830210551 84 0.0 0.0 0.00 0.00 0.00 69 1018.9
20260830210108 85 0.0 0.0 0.00 0.00 0.00 68 1018.9
20260830205545 86 0.0 0.0 0.00 0.00 0.00 67 1018.7
20260830205049 86 0.0 0.0 0.00 0.00 0.00 64 1018.7
20260830204607 86 0.0 0.0 0.00 0.00 0.00 63 1018.7
20260830204045 87 0.0 0.0 0.00 0.00 0.00 65 1018.7
20260830203545 86 0.0 0.0 0.00 0.00 0.00 65 1018.7
20260830203103 86 0.0 0.0 0.00 0.00 0.00 63 1018.7
20260830202550 87 0.0 0.0 0.00 0.00 0.00 62 1018.9
20260830202047 88 0.0 0.0 0.00 0.00 0.00 64 1019.1
20260830201606 86 0.0 0.0 0.00 0.00 0.00 63 1019.1
20260830201047 87 0.0 0.0 0.00 0.00 0.00 61 1019.1
20260830200548 88 0.0 0.0 0.00 0.00 0.00 62 1019.2
20260830200058 89 0.0 0.0 0.00 0.00 0.00 59 1019.3
20260830195547 88 0.0 0.0 0.00 0.00 0.00 61 1019.2
20260830195052 88 0.0 0.0 0.00 0.00 0.00 61 1019.4
20260830194607 89 0.0 0.0 0.00 0.00 0.00 59 1019.4
20260830194047 88 0.0 0.0 0.00 0.00 0.00 61 1019.4
20260830193547 87 0.0 0.0 0.00 0.00 0.00 60 1019.4
20260830193104 88 0.0 0.0 0.00 0.00 0.00 59 1019.4
20260830192546 87 0.0 0.0 0.00 0.00 0.00 61 1019.4
20260830192046 88 0.0 0.0 0.00 0.00 0.00 61 1019.5
20260830191559 87 0.0 0.0 0.00 0.00 0.00 63 1019.6
20260830191048 88 0.0 0.0 0.00 0.00 0.00 60 1019.6
20260830190547 89 0.0 0.0 0.00 0.00 0.00 60 1019.8
20260830190059 88 0.0 0.0 0.00 0.00 0.00 63 1019.9
20260830185549 88 0.0 0.0 0.00 0.00 0.00 61 1020.1
20260830185050 88 0.0 0.0 0.00 0.00 0.00 61 1020.3
20260830184601 87 0.0 0.0 0.00 0.00 0.00 62 1020.4
20260830184046 88 0.0 0.0 0.00 0.00 0.00 61 1020.6
20260830183546 88 0.0 0.0 0.00 0.00 0.00 62 1020.6
20260830183103 89 0.0 0.0 0.00 0.00 0.00 61 1020.6
20260830182548 88 0.0 0.0 0.00 0.00 0.00 62 1020.7
20260830182049 89 0.0 0.0 0.00 0.00 0.00 62 1020.8
20260830181559 86 0.0 0.0 0.00 0.00 0.00 64 1020.8
20260830181047 87 0.0 0.0 0.00 0.00 0.00 63 1020.9
20260830180548 86 0.0 0.0 0.00 0.00 0.00 64 1021.0
20260830180111 86 0.0 0.0 0.00 0.00 0.00 66 1021.0
20260830175547 86 0.0 0.0 0.00 0.00 0.00 66 1021.2
20260830175051 86 0.0 0.0 0.00 0.00 0.00 68 1021.4
20260830174612 86 0.0 0.0 0.00 0.00 0.00 64 1021.4
20260830174047 84 0.0 0.0 0.00 0.00 0.00 68 1021.4
20260830173548 85 0.0 0.0 0.00 0.00 0.00 66 1021.4
20260830173107 84 0.0 0.0 0.00 0.00 0.00 67 1021.6
20260830172548 84 0.0 0.0 0.00 0.00 0.00 72 1021.6
20260830172049 83 0.0 0.0 0.00 0.00 0.00 69 1021.7
20260830171603 83 0.0 0.0 0.00 0.00 0.00 68 1021.8
20260830171048 83 0.0 0.0 0.00 0.00 0.00 70 1021.8
20260830170548 84 0.0 0.0 0.00 0.00 0.00 68 1022.0
20260830170111 83 0.0 0.0 0.00 0.00 0.00 72 1022.1
20260830165551 82 0.0 0.0 0.00 0.00 0.00 71 1022.1
20260830165044 82 0.0 0.0 0.00 0.00 0.00 70 1022.2
20260830164605 82 0.0 0.0 0.00 0.00 0.00 70 1022.3
20260830164049 83 0.0 0.0 0.00 0.00 0.00 68 1022.3
20260830163549 82 0.0 0.0 0.00 0.00 0.00 71 1022.3
20260830163103 81 0.0 0.0 0.00 0.00 0.00 71 1022.5
20260830162548 81 0.0 0.0 0.00 0.00 0.00 74 1022.5
20260830162048 80 0.0 0.0 0.00 0.00 0.00 75 1022.5
20260830161622 79 0.0 0.0 0.00 0.00 0.00 75 1022.6
20260830161045 81 0.0 0.0 0.00 0.00 0.00 74 1022.5
20260830160547 81 0.0 0.0 0.00 0.00 0.00 75 1022.6
20260830160108 80 0.0 0.0 0.00 0.00 0.00 75 1022.7
20260830155551 80 0.0 0.0 0.00 0.00 0.00 75 1022.6
20260830155049 80 0.0 0.0 0.00 0.00 0.00 76 1022.7
20260830154602 79 0.0 0.0 0.00 0.00 0.00 78 1022.7
20260830154047 80 0.0 0.0 0.00 0.00 0.00 76 1022.7
20260830153548 81 0.0 0.0 0.00 0.00 0.00 73 1022.7
20260830153108 81 0.0 0.0 0.00 0.00 0.00 75 1022.6
20260830152547 80 0.0 0.0 0.00 0.00 0.00 74 1022.7
20260830152051 80 0.0 0.0 0.00 0.00 0.00 78 1022.7